COSMOS 1275 DEB

Satellite information

Favourite Embed

Satellite Type and Status

DEBRISIN ORBIT

Key statistics

Satellite COSMOS 1275 DEB at a glance.

Uptime

16167

Days in orbit

Revolutions

≈ 14.1

Per day

Orbit

LEO

Low Earth Orbit

Inclination

82.9

Latest

Satellite identification and parameters

Extended collection of information and parameters for COSMOS 1275 DEB.

Object identification

Identified? True

Debris? True

Object name: COSMOS 1275 DEB

International designator: 1981-053HM

Object number (NORAD): 13817

Object ID (CCSDS): 13817

Country: COMMONWEALTH OF INDEPENDENT STATES (CIS)

Current information (Y/N): Y

RCS size: SMALL

Orbital parameters

Period: 102.356 minutes

Inclination: 82.9445 deg

SMA: 7248.272 km

Apoapsis: 886.877 km

Periapsis: 853.398 km

RAAN: 139.0461 deg

Eccentricy: 0.00230944

Argument of periapsis: 115.6974 deg

Mean anomaly: 244.6588 deg

Mean motion: 14.06860441 rev/day

Mean motion (dot): 0.00001986 rev/day2

B* drag term: 0.001180894 1/REarth

Two-line elements (TLE)

Creation date: Sept. 7, 2025, 3:09 a.m.

Reference frame: TEME

Reference center: EARTH

Epoch: Sept. 6, 2025, 4:50 p.m. UTC

TLE line 0: 0 COSMOS 1275 DEB

TLE line 1: 1 13817U 81053HM 25249.70159806 .00001986 00000-0 11809-2 0 9990

TLE line 2: 2 13817 82.9445 139.0461 0023094 115.6974 244.6588 14.06860441216098

Live tracking on map

Real-time ground track for satellite COSMOS 1275 DEB.

In-orbit conjunctions

A list of the most updated potential collisions computed for object COSMOS 1275 DEB.

Target Orbit TCA Probability of collision Miss distance Type
THORAD AGENA D DEB SSO 2025-05-19 03:24:31 0.000109495 132.0 (m) DEBRIS
FENGYUN 1C DEB SSO 2025-04-30 02:52:50 0.0002250335 75.0 (m) DEBRIS

Associated space launch

Navigation satellite providing location information for the Tsiklon-B navigation system

COSMOS 1275 DEB was lifted into orbit during the mission ‘Kosmos-3M | Parus 27’, on board a Kosmos-3M space rocket.

The launch took place on June 4, 1981, 3:41 p.m. from 132/2.

For more information about the launch, click the button.

Launch to space Kosmos-3M | Parus 27
Kosmos-3M | Parus 27

Agency: N/A

Status: Launch Successful

Launch date: June 4, 1981, 3:41 p.m. UTC

Rocket: Kosmos-3M

Launch pad: 132/2

Location: Plesetsk Cosmodrome, Russian Federation

...

Latest news about this satellite

There are no fresh news available about this satellite. Check back as we update our databases every day.


Newsletter sign-up

Weekly statistics, charts and insights to help you stay on top of the space industry.